Location: Czekanka
(50.4925°N, 19.2643°E)
Time: 13:21:03
(UTC+00:00)

Cosmos 1934 Rocket - Pass Details

Date: 15 June 2024
Orbit: 937 x 999 km, 83.0° (Epoch: 15 July)

Event Time Altitude Azimuth Distance (km) Brightness Sun altitude
Exits shadow 01:38:14 - 185° (S) 3,602 6.5 -6.7°
Reaches altitude 10° 01:40:29 10° 184° (S) 2,753 5.9 -6.5°
Maximum altitude 01:46:50 84° 98° (E) 1,011 4.2 -5.8°
Drops below altitude 10° 01:53:15 10° 11° (N) 2,781 7.4 -5.1°
Sets 01:55:47 0° 11° (N) 3,732 8.2 -4.9°
